This is the latest recevied weather packets stored in our database for station/object LU8AQL-WX. If no packets are shown the sender has not sent any weather packets the latest 10 day(s).
| Time | Temp. | Humidity | Pressure | Rain* | Wind** | Luminosity | Snow |
|---|---|---|---|---|---|---|---|
| 1778129849 | 17.78° C | 98% | 1001 hPa | 2.29 mm | - | - | - |
| 1778129248 | 18.33° C | 97% | 1001 hPa | 2.54 mm | - | - | - |
| 1778128647 | 18.89° C | 94% | 1001 hPa | 1.52 mm | - | - | - |
| 1778128046 | 19.44° C | 91% | 1001 hPa | 0.51 mm | - | - | - |
| 1778127445 | 20° C | 88% | 1001 hPa | 1.52 mm | - | - | - |
| 1778126845 | 21.67° C | 85% | 1001 hPa | 1.27 mm | - | - | - |
| 1778126243 | 22.22° C | 86% | 1002 hPa | 0.25 mm | - | - | - |
| 1778125642 | 22.78° C | 86% | 1001 hPa | 0 mm | - | - | - |
| 1778125041 | 22.78° C | 87% | 1001 hPa | 0 mm | - | - | - |
| 1778124441 | 22.78° C | 86% | 1001 hPa | 0 mm | - | - | - |
| 1778123840 | 22.78° C | 86% | 1001 hPa | 0 mm | - | - | - |
| 1778123239 | 23.33° C | 86% | 1001 hPa | 0 mm | - | - | - |
| 1778122638 | 23.33° C | 85% | 1001 hPa | 0 mm | - | - | - |
| 1778122037 | 23.33° C | 85% | 1001 hPa | 0 mm | - | - | - |
| 1778121436 | 23.33° C | 85% | 1001 hPa | 0 mm | - | - | - |
| 1778120836 | 23.33° C | 85% | 1001 hPa | 0 mm | - | - | - |
| 1778120234 | 23.33° C | 85% | 1001 hPa | 0 mm | - | - | - |
| 1778119634 | 23.33° C | 85% | 1002 hPa | 0 mm | - | - | - |
| 1778119032 | 23.33° C | 85% | 1002 hPa | 0 mm | - | - | - |
| 1778118431 | 23.33° C | 84% | 1002 hPa | 0 mm | - | - | - |
| 1778117830 | 23.33° C | 84% | 1002 hPa | 0 mm | - | - | - |
| 1778117230 | 22.78° C | 85% | 1002 hPa | 0 mm | - | - | - |
| 1778116628 | 22.78° C | 87% | 1002 hPa | 0 mm | - | - | - |
| 1778116027 | 22.78° C | 87% | 1002 hPa | 0 mm | - | - | - |
| 1778115426 | 22.78° C | 86% | 1002 hPa | 0 mm | - | - | - |
* Rain latest hour (hover to see other rain measurements)
** Current wind speed in m/s (hover to see current wind gust speed)